Flight Track Log - Related Links

Times and Time Zones

All times are in EDT time to prevent confusion due to time zone crossing. See the AMF1014 flight status page for this flight to view local times or setup timezone preferences in your user account.

Time Position Orientation Groundspeed Altitude Reporting Facility
EDT Latitude Longitude Course Direction KTS MPH feet Rate Location/Type
09:06PM 29.9908 -90.2581 229° Southwest 113 130 500  Level Houston Center
09:07PM 29.9606 -90.2978 229° Southwest 188 216 3,000 1,574 Climbing Houston Center
09:08PM 29.9514 -90.3408 256° West 176 203 4,200 1,385 Climbing Houston Center
09:09PM 29.9406 -90.3947 257° West 174 200 5,700 1,561 Climbing Houston Center
09:10PM 29.9392 -90.4661 269° West 178 205 7,400 1,317 Climbing Houston Center
09:11PM 29.9361 -90.5264 267° West 183 211 8,400 1,279 Climbing Houston Center
09:12PM 29.9244 -90.5833 257° West 185 213 10,000 1,512 Climbing Houston Center
09:13PM 29.9133 -90.6314 255° West 164 189 11,500 1,268 Climbing Houston Center
09:14PM 29.9003 -90.6797 253° West 160 184 12,600 1,033 Climbing Houston Center
09:15PM 29.8914 -90.7286 258° West 156 180 13,600 934 Climbing Houston Center
09:16PM 29.8792 -90.7781 254° West 160 184 14,500 885 Climbing Houston Center
09:17PM 29.8642 -90.8286 251° West 165 190 15,400 732 Climbing Houston Center
09:18PM 29.8481 -90.8778 249° West 165 190 16,000 293 Climbing Houston Center
09:19PM 29.8231 -90.9308 242° Southwest 186 214 16,000  Level Houston Center
09:20PM 29.7919 -91.0042 244° Southwest 211 243 16,000  Level Houston Center
09:21PM 29.7661 -91.0656 244° Southwest 214 246 16,000  Level Houston Center
09:22PM 29.7425 -91.1264 246° West 210 242 16,000  Level Houston Center
09:23PM 29.7189 -91.1872 246° West 207 238 16,000  Level Houston Center
09:24PM 29.6944 -91.2475 245° Southwest 208 239 16,000  Level Houston Center
09:25PM 29.6786 -91.3122 254° West 219 252 16,000  Level Houston Center
09:26PM 29.6792 -91.3789 271° West 211 243 16,000  Level Houston Center
09:27PM 29.6756 -91.4458 266° West 211 243 16,000  Level Houston Center
09:28PM 29.6692 -91.5114 264° West 209 241 16,000  Level Houston Center
09:29PM 29.6628 -91.5789 264° West 212 244 16,000  Level Houston Center
09:30PM 29.6558 -91.6461 263° West 213 245 16,000 -49 Level Houston Center
09:31PM 29.6464 -91.7258 262° West 215 247 15,900 -49 Descending Houston Center
09:32PM 29.6292 -91.7914 253° West 215 247 15,900  Level Houston Center
09:33PM 29.6125 -91.8583 254° West 218 251 15,900  Level Houston Center
09:34PM 29.5964 -91.9258 255° West 221 254 15,900  Level Houston Center
09:35PM 29.5822 -91.9939 257° West 222 255 15,900  Level Houston Center
09:36PM 29.5681 -92.0625 257° West 222 255 15,900  Level Houston Center
09:37PM 29.5556 -92.1317 258° West 223 257 15,900 49 Level Houston Center
09:38PM 29.5444 -92.1992 259° West 219 252 16,000 49 Climbing Houston Center
09:40PM 29.5358 -92.2689 262° West 220 253 16,000  Level Houston Center
09:41PM 29.5236 -92.3533 261° West 223 257 16,000  Level Houston Center
09:42PM 29.5128 -92.4222 260° West 221 254 16,000  Level Houston Center
09:43PM 29.4997 -92.4911 258° West 221 254 16,000  Level Houston Center
09:44PM 29.4864 -92.5619 258° West 226 260 16,000  Level Houston Center
09:45PM 29.4742 -92.6303 258° West 221 254 16,000  Level Houston Center
09:46PM 29.4606 -92.6992 257° West 221 254 16,000  Level Houston Center
09:47PM 29.4494 -92.7681 260° West 221 254 16,000  Level Houston Center
09:48PM 29.4394 -92.8372 261° West 221 254 16,000  Level Houston Center
09:49PM 29.4325 -92.9089 264° West 224 258 16,000  Level Houston Center
09:50PM 29.4294 -92.9789 267° West 223 257 16,000  Level Houston Center
09:51PM 29.4261 -93.0492 267° West 221 254 16,000  Level Houston Center
09:52PM 29.4275 -93.1197 271° West 221 254 16,000  Level Houston Center
09:53PM 29.4306 -93.2036 272° West 220 253 16,000  Level Houston Center
09:54PM 29.4347 -93.2739 274° West 220 253 16,000  Level Houston Center
09:55PM 29.4383 -93.3439 273° West 221 254 16,000 -98 Level Houston Center
09:56PM 29.4428 -93.4142 274° West 220 253 15,800 -492 Descending Houston Center
09:57PM 29.4492 -93.4892 276° West 226 260 15,000 -738 Descending Houston Center
09:58PM 29.4528 -93.5678 273° West 233 268 14,300 -689 Descending Houston Center
09:59PM 29.4575 -93.6497 274° West 243 280 13,600 -639 Descending Houston Center
10:00PM 29.4639 -93.7317 275° West 250 288 13,000 -537 Descending Houston Center
10:01PM 29.4725 -93.8147 277° West 255 293 12,500 -585 Descending Houston Center
10:02PM 29.4833 -93.8944 279° West 254 292 11,800 -590 Descending Houston Center
10:03PM 29.4894 -93.9750 275° West 253 291 11,300 -393 Descending Houston Center
10:04PM 29.4978 -94.0558 277° West 254 292 11,000 -148 Descending Houston Center
10:05PM 29.5067 -94.1303 278° West 242 278 11,000  Level Houston Center
10:06PM 29.5186 -94.2175 279° West 235 270 11,000  Level Houston Center
10:06PM 29.5222 -94.2458 278° West 233 268 11,000  Level Houston Center
10:07PM 29.5283 -94.2911 279° West 235 270 11,000  Level Houston Center
10:07PM 29.5303 -94.3264 274° West 233 268 11,000  Level Houston Center
10:08PM 29.5361 -94.3644 280° West 233 268 11,000 -309 Level Houston Center
10:09PM 29.5686 -94.4325 299° West 241 277 10,500 -698 Descending Houston Center
10:09PM 29.5822 -94.4686 293° West 251 289 10,000 -984 Descending Houston Center
10:10PM 29.5983 -94.5061 296° West 250 288 9,500 -1,100 Descending Houston Center
10:10PM 29.6136 -94.5514 291° West 274 315 8,900 -934 Descending Houston Center
10:12PM 29.6697 -94.6586 301° West 280 322 7,600 -717 Descending Houston Center
10:13PM 29.7325 -94.7053 327° Northwest 277 319 7,000 -295 Descending Houston Center
10:14PM 29.8011 -94.7319 341° North 266 306 7,000  Level Houston Center
10:14PM 29.8300 -94.7475 335° Northwest 251 289 7,000  Level Houston Center
10:15PM 29.8647 -94.7653 336° Northwest 256 295 7,000  Level Houston Center
10:15PM 29.8944 -94.7828 333° Northwest 239 275 7,000 -1,034 Level Houston Center
10:17PM 29.8471 -94.8325 222° Southwest  Level FlightAware Approximate
10:18PM 30.0008 -94.8633 222° Southwest 244 281 4,500  Level Houston Center
10:18PM 29.9981 -94.9031 265° West 235 270 4,100 -590 Descending Houston Center
10:19PM 29.9931 -94.9369 260° West 217 250 3,900 -197 Descending Houston Center
10:19PM 29.9936 -94.9692 271° West 213 245 3,900 -492 Level Houston Center
10:20PM 29.9928 -94.9997 268° West 197 227 3,400 -885 Descending Houston Center
10:20PM 29.9942 -95.0325 273° West 201 231 3,000 -492 Descending Houston Center
10:21PM 29.9947 -95.0644 271° West 194 223 2,900  Descending Houston Center
10:21PM 29.9953 -95.0933 271° West 193 222 3,000 98 Climbing Houston Center
10:22PM 29.9922 -95.1275 264° West 200 230 3,000 -197 Level Houston Center
10:22PM 29.9931 -95.1575 272° West 197 227 2,800 -885 Descending Houston Center
10:23PM 29.9939 -95.1900 272° West 201 231 2,100 -800 Descending Houston Center
10:23PM 29.9939 -95.2181 270° West 196 226 2,000 -545 Descending Houston Center
10:24PM 29.9936 -95.2336 269° West 114 131 1,600 -689 Descending Houston Center
10:24PM 29.9939 -95.2544 271° West 147 169 1,300 -590 Descending Houston Center
10:25PM 29.9931 -95.2722 267° West 121 139 1,000 -787 Descending Houston Center
10:25PM 29.9928 -95.2994 269° West 125 144 500 -590 Descending Houston Center
10:26PM 29.9922 -95.3108 267° West 116 133 400 -197 Descending Houston Center
10:26PM 29.9925 -95.3344 271° West 122 140 300 -140 Descending Houston Center

Login

Don't have an account? Register now (free) for customized features, flight alerts, and more!